Weather in Tebekmakhi

Russia / Republic of Dagestan     42°20′24″N   47°12′28″E
temp.,
°C
wind,
m/s
gust,
m/s
humid.,
%
clouds,
%
prec.,
mm/h
press.,
hPa
HPBL,
m
29 january, sat
sat2900:00−12ssw32721 0.0 102522
03:00−12ssw32700 0.0 102522
06:00−12ssw32710 0.0 102621
09:00−8ssw22620 0.0 102363
12:00−4ese11485 0.0 1019422
15:00−3ne11555 0.0 1018379
18:00−9ssw32782 0.0 102315
21:00−11ssw32664 0.0 102520
30 january, sun
sun3000:00−11ssw32655 0.0 102518
03:00−11ssw32675 0.0 102515
06:00−11ssw32695 0.0 102415
09:00−7s226040 0.0 102152
12:00−3ene124688 0.0 1016414
15:00−3e115893 0.0 1014317
18:00−8ssw228091 0.0 101815
21:00−9ssw327019 0.0 101818
31 january, mon
mon3100:00−9ssw32691 0.0 101719
03:00−9ssw33680 0.0 101524
06:00−9ssw43680 0.0 101531
09:00−6sw33650 0.0 101480
12:00−1w12460 0.0 1010601
15:000nw11510 0.0 1009224
18:00−7ssw32724 0.0 101518
21:00−8ssw32695 0.0 101820
1 february, tue
tue100:00−9ssw326687 0.0 101921
03:00−8ssw335910 0.0 101923
06:00−8s33609 0.0 101920
09:00−4sw11636 0.0 101745
12:00−2nne21531 0.0 1016290
15:00−2nne11540 0.0 1016394
18:00−6ssw22771 0.0 102014
21:00−6ssw33695 0.0 102024
2 february, wed
wed200:00−7ssw33685 0.0 101922
03:00−6ssw326978 0.0 101918
06:00−7ssw326689 0.0 102016
09:00−2ssw22585 0.0 101834
12:00+4sw1146100 0.0 1013114
15:00+4sw1160100 0.0 101221
18:00−1ssw3359100 0.0 101621
21:00−2ssw4351100 0.0 101728